datetime,inflow volume
1965-10-26,2337.57033
1965-10-27,2389.21587
1965-10-28,1919.65194
1965-10-29,2343.60056
1965-10-30,2304.69871
1965-10-31,2245.16602
1965-11-01,1924.90287
1965-11-02,2069.45031
1965-11-03,2094.86508
1965-11-04,2101.74613
1965-11-05,2131.45008
1965-11-06,2102.33222
1965-11-07,2016.68802
1965-11-08,2003.07228
1965-11-09,2019.27706
1965-11-10,2055.48184
1965-11-11,2048.52591
1965-11-12,1833.70244
1965-11-13,1845.05939
1965-11-14,1913.27781
1965-11-15,2016.54263
1965-11-16,2037.66556
1965-11-17,2084.31534
1965-11-18,2099.98218
1965-11-19,2196.83678
1965-11-20,2285.21007
1965-11-21,2251.41525
1965-11-22,2008.58054
1965-11-23,1951.46505
1965-11-24,2182.84772
1965-11-25,2156.05407
1965-11-26,2100.35376
1965-11-27,1472.58403
1965-11-28,1393.78927
1965-11-29,1287.52066
1965-11-30,1272.81818
1965-12-01,1274.58581
1965-12-02,1415.07077
1965-12-03,1559.74352
1965-12-04,1542.91426
1965-12-05,1425.97405
1965-12-06,1394.02814
1965-12-07,1321.12043
1965-12-08,1284.78038
1965-12-09,1293.90159
1965-12-10,1332.50507
1965-12-11,1404.44735
1965-12-12,1510.285
1965-12-13,1493.8967
1965-12-14,1533.33758
1965-12-15,1421.88589
1965-12-16,1318.81429
1965-12-17,1242.9659
1965-12-18,1157.04015
1965-12-19,1125.12829
1965-12-20,1162.13929
1965-12-21,1238.14482
1965-12-22,1144.1366
1965-12-23,1238.14213
1965-12-24,1276.15317
1965-12-25,1200.15317
1965-12-26,1086.1366
1965-12-27,1161.13106
1965-12-28,1115.03452
1965-12-29,1167.9106
1965-12-30,1233.50837
1965-12-31,1363.38721
1966-01-01,1381.40097
1966-01-02,1439.42308
1966-01-03,1303.13937
1966-01-04,1178.86651
1966-01-05,1274.85544
1966-01-06,1388.86097
1966-01-07,1596.9135
1966-01-08,1679.07884
1966-01-09,1587.11484
1966-01-10,1524.35174
1966-01-11,1442.09277
1966-01-12,1417.7512
1966-01-13,1473.96603
1966-01-14,1444.8778
1966-01-15,1473.77573
1966-01-16,1396.44234
1966-01-17,1285.54147
1966-01-18,1188.9986
1966-01-19,1119.70646
1966-01-20,1069.87438
1966-01-21,1093.37028
1966-01-22,1046.09412
1966-01-23,1069.20983
1966-01-24,1116.28442
1966-01-25,1111.49419
1966-01-26,1130.66004
1966-01-27,1130.67713
1966-01-28,1130.69426
1966-01-29,1051.74953
1966-01-30,1098.82983
1966-01-31,1099.84415
1966-02-01,1127.93017
1966-02-02,1127.96656
1966-02-03,1128.8184
1966-02-04,1137.92091
1966-02-05,1100.93523
1966-02-06,1140.9386
1966-02-07,1134.85652
1966-02-08,1133.40233
1966-02-09,1130.93952
1966-02-10,1108.95314
1966-02-11,1137.05522
1966-02-12,1074.0826
1966-02-13,1041.03812
1966-02-14,994.279435
1966-02-15,1064.32565
1966-02-16,1054.38843
1966-02-17,1045.6027
1966-02-18,1079.41543
1966-02-19,1076.45139
1966-02-20,1141.54822
1966-02-21,1136.61213
1966-02-22,1126.70897
1966-02-23,1113.82233
1966-02-24,1103.93583
1966-02-25,1100.96651
1966-02-26,1081.97793
1966-02-27,1040.0167
1966-02-28,1049.10782
1966-03-01,1089.12214
1966-03-02,1094.43071
1966-03-03,1147.49938
1966-03-04,1066.36381
1966-03-05,1023.21959
1966-03-06,1013.95397
1966-03-07,1026.66904
1966-03-08,1108.19264
1966-03-09,1179.55961
1966-03-10,1262.8853
1966-03-11,1229.5468
1966-03-12,1182.78392
1966-03-13,1225.91381
1966-03-14,1259.74255
1966-03-15,1312.59772
1966-03-16,1352.84253
1966-03-17,1302.64242
1966-03-18,1273.42705
1966-03-19,1220.0513
1966-03-20,1265.1901
1966-03-21,1284.20361
1966-03-22,1230.1416
1966-03-23,1177.94327
1966-03-24,1229.97369
1966-03-25,1267.49041
1966-03-26,1400.52328
1966-03-27,1511.31346
1966-03-28,1730.83843
1966-03-29,1941.67811
1966-03-30,2248.34698
1966-03-31,3081.81631
1966-04-01,5330.99862
1966-04-02,6831.15205
1966-04-03,6617.71536
1966-04-04,6316.83423
1966-04-05,5566.11998
1966-04-06,4935.80157
1966-04-07,5227.9624
1966-04-08,5404.34467
1966-04-09,5121.52833
1966-04-10,4523.51502
1966-04-11,4260.54624
1966-04-12,3784.3075
1966-04-13,3258.31465
1966-04-14,3000.06768
1966-04-15,2948.83084
1966-04-16,2874.32306
1966-04-17,3101.2245
1966-04-18,3229.30419
1966-04-19,3040.43786
1966-04-20,2518.4877
1966-04-21,2528.01026
1966-04-22,2627.44516
1966-04-23,2637.13356
1966-04-24,2658.05591
1966-04-25,2644.15314
1966-04-26,2668.08265
1966-04-27,2673.66341
1966-04-28,2548.52937
1966-04-29,2307.67107
1966-04-30,2188.12354
1966-05-01,2100.7672
1966-05-02,2037.93135
1966-05-03,2123.15893
1966-05-04,2386.79374
1966-05-05,2776.84207
1966-05-06,3242.92226
1966-05-07,4052.33526
1966-05-08,5452.83721
1966-05-09,7318.57355
1966-05-10,8468.87909
1966-05-11,9899.54233
1966-05-12,9584.593
1966-05-13,7606.17929
1966-05-14,6819.06063
1966-05-15,5894.94472
1966-05-16,4930.81613
1966-05-17,4282.93902
1966-05-18,3867.13413
1966-05-19,3437.22408
1966-05-20,3328.18218
1966-05-21,3098.51334
1966-05-22,3374.55677
1966-05-23,4243.09
1966-05-24,4576.95481
1966-05-25,4322.45666
1966-05-26,4205.05401
1966-05-27,4598.68614
1966-05-28,5386.55744
1966-05-29,6523.92783
1966-05-30,7327.80767
1966-05-31,8008.99128
1966-06-01,8900.98429
1966-06-02,9054.95345
1966-06-03,8068.12421
1966-06-04,6932.26639
1966-06-05,6190.87698
1966-06-06,5417.18577
1966-06-07,4792.79285
1966-06-08,4656.17595
1966-06-09,5070.36799
1966-06-10,5302.50498
1966-06-11,5321.33826
1966-06-12,5556.30742
1966-06-13,5393.18186
1966-06-14,4737.27376
1966-06-15,4137.21278
1966-06-16,3624.25039
1966-06-17,3380.68114
1966-06-18,3390.51709
1966-06-19,3881.96521
1966-06-20,4284.9279
1966-06-21,4652.86146
1966-06-22,5618.8385
1966-06-23,7173.22587
1966-06-24,7930.79992
1966-06-25,8046.24155
1966-06-26,7077.38516
1966-06-27,5734.59291
1966-06-28,4627.14732
1966-06-29,3829.00567
1966-06-30,3578.39039
1966-07-01,3546.92827
1966-07-02,4045.36522
1966-07-03,4032.7938
1966-07-04,3690.00645
1966-07-05,3457.75348
1966-07-06,3262.26796
1966-07-07,3081.18508
1966-07-08,2764.24582
1966-07-09,2497.72166
1966-07-10,2416.72251
1966-07-11,2535.91037
1966-07-12,2511.16503
1966-07-13,2577.54162
1966-07-14,2637.90002
1966-07-15,2619.73473
1966-07-16,2490.77757
1966-07-17,2411.50736
1966-07-18,2397.49764
1966-07-19,2409.57122
1966-07-20,2450.34492
1966-07-21,2479.34683
1966-07-22,2556.8543
1966-07-23,2577.5423
1966-07-24,2446.95719
1966-07-25,2386.1996
1966-07-26,2396.06337
1966-07-27,2447.99269
1966-07-28,2333.23946
1966-07-29,2203.54341
1966-07-30,2144.31662
1966-07-31,2065.94214
1966-08-01,2026.23719
1966-08-02,2015.59496
1966-08-03,2072.49063
1966-08-04,2127.11414
1966-08-05,2200.05877
1966-08-06,2146.73537
1966-08-07,2200.52163
1966-08-08,2241.80611
1966-08-09,2206.69403
1966-08-10,2071.06439
1966-08-11,1929.77348
1966-08-12,1842.58314
1966-08-13,1739.89744
1966-08-14,1728.09626
1966-08-15,1729.40241
1966-08-16,1674.31117
1966-08-17,1647.56684
1966-08-18,1512.36158
1966-08-19,1521.75009
1966-08-20,1547.99745
1966-08-21,1562.40831
1966-08-22,1506.87838
1966-08-23,1442.5993
1966-08-24,1467.85621
1966-08-25,1419.72558
1966-08-26,1371.60161
1966-08-27,1394.06158
1966-08-28,1362.34736
1966-08-29,1293.94183
1966-08-30,1265.84414
1966-08-31,1269.77867
1966-09-01,1241.98589
1966-09-02,1286.28933
1966-09-03,1652.39973
1966-09-04,1686.819
1966-09-05,1617.21284
1966-09-06,1448.12696
1966-09-07,1413.41004
1966-09-08,1370.39208
1966-09-09,1267.21164
1966-09-10,1249.44761
1966-09-11,1222.7853
1966-09-12,1221.89513
1966-09-13,1216.24475
1966-09-14,1344.48119
1966-09-15,1482.71674
1966-09-16,1627.37769
1966-09-17,1663.13493
1966-09-18,1557.53828
1966-09-19,1464.81336
1966-09-20,1376.17551
1966-09-21,1311.12074
1966-09-22,1295.36152
1966-09-23,1271.64893
1966-09-24,1231.92665
1966-09-25,1296.19707
1966-09-26,1206.25618
1966-09-27,1188.19985
1966-09-28,1182.21603
1966-09-29,1151.11072
1966-09-30,1118.17104
1966-10-01,1131.19338
1966-10-02,1134.13843
1966-10-03,1101.2324
1966-10-04,1132.27594
1966-10-05,1127.30745
1966-10-06,1123.01901
1966-10-07,1074.08273
1966-10-08,1082.13192
1966-10-09,1048.23115
1966-10-10,1032.31873
1966-10-11,1028.48194
1966-10-12,1022.34702
1966-10-13,1107.45435
1966-10-14,1172.47179
1966-10-15,1149.16794
1966-10-16,1115.30881
1966-10-17,1153.51502
1966-10-18,1154.74081
1966-10-19,1191.9642
1966-10-20,1187.03095
1966-10-21,1219.62364
1966-10-22,1230.62156
1966-10-23,1180.81068
1966-10-24,1192.59461
1966-10-25,1201.63341
1966-10-26,1208.63056
1966-10-27,1220.61096
1966-10-28,1224.68567
1966-10-29,1124.51421
1966-10-30,1098.40325
1966-10-31,1095.50702
1966-11-01,1184.57258
1966-11-02,1182.46734
1966-11-03,1138.55882
1966-11-04,1140.39401
1966-11-05,1098.22104
1966-11-06,1134.1914
1966-11-07,1159.01966
1966-11-08,1140.0713
1966-11-09,1113.92337
1966-11-10,1087.78687
1966-11-11,1136.8358
1966-11-12,1162.65313
1966-11-13,1141.70069
1966-11-14,1193.71019
1966-11-15,1159.79176
1966-11-16,1161.98491
1966-11-17,1157.80398
1966-11-18,1116.93478
1966-11-19,1126.65019
1966-11-20,1071.27691
1966-11-21,1065.70972
1966-11-22,1127.96969
1966-11-23,1075.39496
1966-11-24,1011.7354
1966-11-25,1029.16515
1966-11-26,1089.63911
1966-11-27,1103.3204
1966-11-28,1135.87854
1966-11-29,1187.0796
1966-11-30,1206.16726
1966-12-01,1278.02801
1966-12-02,1288.40273
1966-12-03,1231.11561
1966-12-04,1160.13574
1966-12-05,1146.26868
1966-12-06,1047.8675
1966-12-07,943.337863
1966-12-08,704.707757
1966-12-09,826.037994
1966-12-10,892.686966
1966-12-11,864.922728
1966-12-12,881.978782
1966-12-13,907.987486
1966-12-14,910.562078
1966-12-15,888.729046
1966-12-16,840.333708
1966-12-17,863.320652
1966-12-18,816.303276
1966-12-19,834.337666
1966-12-20,842.456872
1966-12-21,806.359466
1966-12-22,824.190268
1966-12-23,790.077146
1966-12-24,770.47034
1966-12-25,772.650788
1966-12-26,822.670436
1966-12-27,797.687716
1966-12-28,820.924356
1966-12-29,759.475046
1966-12-30,797.583766
1966-12-31,838.47976
1967-01-01,820.472812
1967-01-02,781.612384
1967-01-03,774.501882
1967-01-04,797.542284
1967-01-05,814.433926
1967-01-06,815.457894
1967-01-07,766.477414
1967-01-08,792.499174
1967-01-09,797.688336
1967-01-10,833.631798
1967-01-11,861.643502
1967-01-12,786.66523
1967-01-13,819.639512
1967-01-14,770.642502
1967-01-15,829.616912
1967-01-16,904.647248
1967-01-17,807.652446
1967-01-18,817.591566
1967-01-19,798.561496
1967-01-20,824.583256
1967-01-21,800.602872
1967-01-22,825.883464
1967-01-23,826.905871
1967-01-24,836.862201
1967-01-25,851.752411
1967-01-26,904.779207
1967-01-27,933.808412
1967-01-28,958.839696
1967-01-29,989.873389
1967-01-30,996.840863
1967-01-31,1017.94289
1967-02-01,965.974171
1967-02-02,967.005554
1967-02-03,942.03466
1967-02-04,943.063634
1967-02-05,971.094324
1967-02-06,1000.12719
1967-02-07,947.155737
1967-02-08,948.184216
1967-02-09,929.144397
1967-02-10,958.172876
1967-02-11,987.203566
1967-02-12,960.232045
1967-02-13,969.194371
1967-02-14,970.222817
1967-02-15,1027.25569
1967-02-16,1001.28638
1967-02-17,1031.31924
1967-02-18,1004.34993
1967-02-19,1062.38505
1967-02-20,1007.41574
1967-02-21,979.444214
1967-02-22,988.40655
1967-02-23,1018.43727
1967-02-24,1019.46786
1967-02-25,1050.5008
1967-02-26,1080.53581
1967-02-27,1062.50263
1967-02-28,1062.53549
1967-03-01,1189.511
1967-03-02,1220.55475
1967-03-03,1196.59647
1967-03-04,1256.64247
1967-03-05,1259.6885
1967-03-06,1202.73012
1967-03-07,1204.77173
1967-03-08,1177.8112
1967-03-09,1209.85284
1967-03-10,1241.8966
1967-03-11,1245.94046
1967-03-12,1278.98646
1967-03-13,1259.9642
1967-03-14,1261.00796
1967-03-15,1233.0496
1967-03-16,1235.40477
1967-03-17,1207.44544
1967-03-18,1248.73822
1967-03-19,1251.78239
1967-03-20,1286.14751
1967-03-21,1256.1929
1967-03-22,1267.17218
1967-03-23,1334.54488
1967-03-24,1378.5329
1967-03-25,1347.90985
1967-03-26,1383.96529
1967-03-27,1544.77638
1967-03-28,1535.90439
1967-03-29,1677.87286
1967-03-30,1884.58807
1967-03-31,2067.55919
1967-04-01,1462.90488
1967-04-02,1923.90808
1967-04-03,2018.13094
1967-04-04,1945.98728
1967-04-05,2452.30821
1967-04-06,2703.5494
1967-04-07,2409.73694
1967-04-08,2220.00008
1967-04-09,2200.62911
1967-04-10,2178.26405
1967-04-11,2211.19267
1967-04-12,2273.85382
1967-04-13,2294.1242
1967-04-14,2148.03843
1967-04-15,2415.13501
1967-04-16,2441.08734
1967-04-17,2339.96627
1967-04-18,2158.63215
1967-04-19,2114.27443
1967-04-20,2142.72493
1967-04-21,2073.75952
1967-04-22,2000.35225
1967-04-23,1611.78617
1967-04-24,1762.23536
1967-04-25,1987.04944
1967-04-26,1619.01969
1967-04-27,1714.86492
1967-04-28,1762.18476
1967-04-29,1901.34676
1967-04-30,2045.31309
1967-05-01,
1967-05-02,1995.61241
1967-05-03,1942.03144
1967-05-04,2194.96776
1967-05-05,2343.55471
1967-05-06,2470.62489
1967-05-07,2202.58779
1967-05-08,2203.43915
1967-05-09,2196.91806
1967-05-10,2217.37325
1967-05-11,2366.70025
1967-05-12,2393.33136
1967-05-13,2133.52457
1967-05-14,2198.90365
1967-05-15,2270.4184
1967-05-16,2196.40815
1967-05-17,1992.01512
1967-05-18,1914.55351
1967-05-19,2218.88108
1967-05-20,2536.52917
1967-05-21,2695.09102
1967-05-22,3023.75959
1967-05-23,3190.01431
1967-05-24,3734.2702
1967-05-25,4238.50834
1967-05-26,6487.5806
1967-05-27,9422.04921
1967-05-28,11872.1925
1967-05-29,13382.2839
1967-05-30,15790.5518
1967-05-31,19201.3078
1967-06-01,15448.7408
1967-06-02,14763.3317
1967-06-03,13546.8542
1967-06-04,13219.2455
1967-06-05,12902.7245
1967-06-06,12484.0705
1967-06-07,11694.8375
1967-06-08,13453.4015
1967-06-09,13482.0521
1967-06-10,12972.5747
1967-06-11,12497.063
1967-06-12,11775.2947
1967-06-13,11163.1656
1967-06-14,11559.0577
1967-06-15,12685.3533
1967-06-16,13577.8708
1967-06-17,13153.8052
1967-06-18,12276.7228
1967-06-19,12511.4464
1967-06-20,13038.1088
1967-06-21,15828.7697
1967-06-22,18682.5475
1967-06-23,20829.0522
1967-06-24,22904.5054
1967-06-25,24700.6648
1967-06-26,21722.1952
1967-06-27,18432.3247
1967-06-28,17351.2715
1967-06-29,18539.0402
1967-06-30,20905.9699
1967-07-01,20614.9414
1967-07-02,19649.7296
1967-07-03,19126.9207
1967-07-04,19551.1168
1967-07-05,19825.6834
1967-07-06,20633.7921
1967-07-07,20256.2832
1967-07-08,19276.9331
1967-07-09,18304.982
1967-07-10,16708.2655
1967-07-11,15037.8149
1967-07-12,13270.0219
1967-07-13,12695.399
1967-07-14,11894.8584
1967-07-15,11418.3604
1967-07-16,11446.4481
1967-07-17,11064.9268
1967-07-18,11092.7263
1967-07-19,10915.1467
1967-07-20,10397.4758
1967-07-21,9615.18058
1967-07-22,8584.50915
1967-07-23,7958.15753
1967-07-24,7874.03927
1967-07-25,5126.41922
1967-07-26,5902.91802
1967-07-27,6260.20367
1967-07-28,5733.04049
1967-07-29,7326.49267
1967-07-30,5723.46852
1967-07-31,4645.93354
1967-08-01,4575.72944
1967-08-02,4529.98657
1967-08-03,4060.86182
1967-08-04,3906.44595
1967-08-05,3779.74197
1967-08-06,3648.76581
1967-08-07,3562.9028
1967-08-08,3521.70869
1967-08-09,3543.1824
1967-08-10,3580.19433
1967-08-11,3313.89169
1967-08-12,3118.38683
1967-08-13,2902.0878
1967-08-14,2862.11147
1967-08-15,2752.15602
1967-08-16,2559.26723
1967-08-17,2341.20436
1967-08-18,2148.93661
1967-08-19,2082.51214
1967-08-20,1996.15072
1967-08-21,1934.98993
1967-08-22,1894.26025
1967-08-23,1749.86301
1967-08-24,1634.76516
1967-08-25,1693.75334
1967-08-26,1722.14229
1967-08-27,1656.01226
1967-08-28,1528.51344
1967-08-29,1539.88364
1967-08-30,1548.60279
1967-08-31,1583.73949
1967-09-01,1839.91154
1967-09-02,1787.64745
1967-09-03,1723.79101
1967-09-04,1644.76967
1967-09-05,1614.05023
1967-09-06,1596.81387
1967-09-07,1540.69321
1967-09-08,1481.10606
1967-09-09,1380.61155
1967-09-10,1517.0019
1967-09-11,1620.51563
1967-09-12,1651.07748
1967-09-13,1699.94273
1967-09-14,1771.45627
1967-09-15,1756.52539
1967-09-16,1694.25145
1967-09-17,1629.25412
1967-09-18,1692.28979
1967-09-19,1836.23416
1967-09-20,1822.61078
1967-09-21,1730.3996
1967-09-22,1619.13734
1967-09-23,1557.85335
1967-09-24,1525.73179
1967-09-25,1508.39542
1967-09-26,1513.77881
1967-09-27,1481.90513
1967-09-28,1496.77246
1967-09-29,1465.90363
1967-09-30,1465.63154
1967-10-01,1453.45265
1967-10-02,1571.29568
1967-10-03,1676.13652
1967-10-04,1723.83517
1967-10-05,1724.8976
1967-10-06,1805.62466
1967-10-07,1952.54524
1967-10-08,2467.46439
1967-10-09,2286.37976
1967-10-10,2346.12739
1967-10-11,2222.28614
1967-10-12,2142.88095
1967-10-13,2128.63101
1967-10-14,2049.52581
1967-10-15,1650.14644
1967-10-16,1577.62878
1967-10-17,1615.61178
1967-10-18,1640.4026
1967-10-19,1640.42052
1967-10-20,1578.4459
1967-10-21,1562.30851
1967-10-22,1546.16627
1967-10-23,1546.77376
1967-10-24,1610.0898
1967-10-25,1641.10162
1967-10-26,1673.96192
1967-10-27,1673.82117
1967-10-28,1642.83266
1967-10-29,1640.68335
1967-10-30,
1967-10-31,1610.52647
1967-11-01,1657.54096
1967-11-02,1609.3834
1967-11-03,1577.37991
1967-11-04,1497.19814
1967-11-05,1480.01394
1967-11-06,1469.14005
1967-11-07,1451.54267
1967-11-08,1503.61152
1967-11-09,1539.52099
1967-11-10,1611.4389
1967-11-11,1669.53207
1967-11-12,1590.43668
1967-11-13,1604.70486
1967-11-14,1504.57605
1967-11-15,1498.2979
1967-11-16,1514.18124
1967-11-17,1484.56323
1967-11-18,1448.79152
1967-11-19,1445.70914
1967-11-20,1503.253
1967-11-21,1633.68219
1967-11-22,1617.66216
1967-11-23,1534.82922
1967-11-24,1676.83609
1967-11-25,1542.77725
1967-11-26,1355.25495
1967-11-27,1131.56609
1967-11-28,1081.69948
1967-11-29,1145.02488
1967-11-30,1193.34515
1967-12-01,1122.43623
1967-12-02,1056.44704
1967-12-03,1044.521
1967-12-04,1103.60359
1967-12-05,1058.67771
1967-12-06,976.737508
1967-12-07,952.725508
1967-12-08,991.785304
1967-12-09,1013.66754
1967-12-10,1072.73656
1967-12-11,1040.43925
1967-12-12,988.825046
1967-12-13,965.825272
1967-12-14,1065.90524
1967-12-15,1073.98534
1967-12-16,1120.07094
1967-12-17,1057.07941
1967-12-18,1063.15397
1967-12-19,1050.21522
1967-12-20,1074.2739
1967-12-21,1071.39868
1967-12-22,1054.45513
1967-12-23,1144.52028
1967-12-24,1171.58764
1967-12-25,1149.719
1967-12-26,1059.84157
1967-12-27,1073.83199
1967-12-28,1032.88409
1967-12-29,1103.94274
1967-12-30,1064.99708
1967-12-31,956.040566
1968-01-01,1103.0309
1968-01-02,1130.08956
1968-01-03,1074.07566
1968-01-04,1055.12562
1968-01-05,1073.24383
1968-01-06,1086.2299
1968-01-07,1042.27765
1968-01-08,1061.39375
1968-01-09,1009.50546
1968-01-10,1036.55333
1968-01-11,1081.67165
1968-01-12,969.646774
1968-01-13,931.617592
1968-01-14,965.590512
1968-01-15,976.56356
1968-01-16,1034.55747
1968-01-17,1020.53263
1968-01-18,995.371206
1968-01-19,1024.19323
1968-01-20,1035.14751
1968-01-21,1088.18879
1968-01-22,1041.4821
1968-01-23,1067.52236
1968-01-24,1122.5672
1968-01-25,1150.61426
1968-01-26,1090.73948
1968-01-27,1094.9992
1968-01-28,1036.10558
1968-01-29,1012.14366
1968-01-30,1007.24796
1968-01-31,1045.42276
1968-02-01,1048.4653
1968-02-02,1050.50777
1968-02-03,998.544993
1968-02-04,1055.58661
1968-02-05,1106.68222
1968-02-06,1164.73261
1968-02-07,1168.783
1968-02-08,1116.82901
1968-02-09,1119.87511
1968-02-10,1149.92325
1968-02-11,1153.9715
1968-02-12,1129.01753
1968-02-13,1131.06354
1968-02-14,1105.10729
1968-02-15,1023.14462
1968-02-16,878.170852
1968-02-17,939.201542
1968-02-18,998.236654
1968-02-19,1049.34214
1968-02-20,1074.44998
1968-02-21,1075.49159
1968-02-22,1078.53323
1968-02-23,1081.57485
1968-02-24,1022.61207
1968-02-25,1056.65154
1968-02-26,1035.62268
1968-02-27,1066.66205
1968-02-28,1040.69937
1968-02-29,1010.73438
1968-03-01,1050.70549
1968-03-02,1183.70201
1968-03-03,1091.74138
1968-03-04,1063.77863
1968-03-05,1134.75413
1968-03-06,1139.79584
1968-03-07,1108.83521
1968-03-08,1142.87685
1968-03-09,1176.92071
1968-03-10,1084.95793
1968-03-11,1054.99305
1968-03-12,1063.96192
1968-03-13,1137.93526
1968-03-14,1229.69765
1968-03-15,1277.9524
1968-03-16,1250.32192
1968-03-17,1254.36942
1968-03-18,1345.81618
1968-03-19,1480.88121
1968-03-20,1587.28369
1968-03-21,1760.36981
1968-03-22,1732.4534
1968-03-23,1642.87482
1968-03-24,1760.92125
1968-03-25,1953.24186
1968-03-26,2084.13112
1968-03-27,2205.42586
1968-03-28,2079.02415
1968-03-29,2252.31026
1968-03-30,2574.12629
1968-03-31,2877.13161
1968-04-01,2749.59224
1968-04-02,2877.48138
1968-04-03,3016.72008
1968-04-04,2914.30014
1968-04-05,2661.50099
1968-04-06,2549.96924
1968-04-07,2390.14111
1968-04-08,2109.65519
1968-04-09,1974.7853
1968-04-10,1982.91523
1968-04-11,2413.46937
1968-04-12,2777.68033
1968-04-13,2933.21232
1968-04-14,2722.4161
1968-04-15,2355.89704
1968-04-16,2260.37245
1968-04-17,2442.88804
1968-04-18,2133.44244
1968-04-19,2058.99373
1968-04-20,2038.46347
1968-04-21,1963.42952
1968-04-22,1886.97611
1968-04-23,1851.52235
1968-04-24,1859.08342
1968-04-25,1899.75428
1968-04-26,1802.48452
1968-04-27,1820.98864
1968-04-28,1913.59331
1968-04-29,1966.64835
1968-04-30,2065.28752
1968-05-01,2258.8976
1968-05-02,2670.719
1968-05-03,3061.47579
1968-05-04,3213.0768
1968-05-05,3349.87012
1968-05-06,3673.79555
1968-05-07,3641.70726
1968-05-08,3082.39949
1968-05-09,2655.02458
1968-05-10,2672.9596
1968-05-11,2969.65102
1968-05-12,3125.37347
1968-05-13,3248.97505
1968-05-14,3658.29994
1968-05-15,3626.13147
1968-05-16,3224.59157
1968-05-17,2872.16116
1968-05-18,2450.17673
1968-05-19,2196.60677
1968-05-20,2073.48988
1968-05-21,2097.84669
1968-05-22,2289.42816
1968-05-23,2457.76907
1968-05-24,3102.64204
1968-05-25,3475.48971
1968-05-26,3234.87175
1968-05-27,3132.9524
1968-05-28,2991.19013
1968-05-29,3011.27404
1968-05-30,3426.50957
1968-05-31,4811.07268
1968-06-01,4961.00818
1968-06-02,5317.75487
1968-06-03,6151.7908
1968-06-04,8068.18082
1968-06-05,13038.472
1968-06-06,17534.6943
1968-06-07,19416.5175
1968-06-08,20229.1539
1968-06-09,18565.3673
1968-06-10,16331.0395
1968-06-11,12977.9969
1968-06-12,10552.0576
1968-06-13,9857.36117
1968-06-14,9971.13525
1968-06-15,10472.2091
1968-06-16,9708.48299
1968-06-17,9088.44271
1968-06-18,9423.37739
1968-06-19,10484.5214
1968-06-20,12319.2278
1968-06-21,14065.4751
1968-06-22,15820.4949
1968-06-23,17502.0921
1968-06-24,17906.0851
1968-06-25,17713.4932
1968-06-26,15642.4234
1968-06-27,13256.8547
1968-06-28,10522.4892
1968-06-29,9616.77694
1968-06-30,9972.69359
1968-07-01,9187.49838
1968-07-02,7710.45598
1968-07-03,6256.38552
1968-07-04,5054.57084
1968-07-05,4609.69988
1968-07-06,4542.88554
1968-07-07,4711.92546
1968-07-08,5029.00459
1968-07-09,5478.31104
1968-07-10,5682.0069
1968-07-11,5917.42692
1968-07-12,6222.70981
1968-07-13,6394.68917
1968-07-14,6468.01428
1968-07-15,6377.82918
1968-07-16,6263.36364
1968-07-17,6425.99705
1968-07-18,6146.82549
1968-07-19,5783.77707
1968-07-20,5444.44018
1968-07-21,5064.94447
1968-07-22,4896.59082
1968-07-23,4622.1865
1968-07-24,4335.84715
1968-07-25,4303.97458
1968-07-26,4288.02927
1968-07-27,4236.94058
1968-07-28,3917.11005
1968-07-29,3619.27527
1968-07-30,3522.75903
1968-07-31,3320.51641
1968-08-01,3301.76966
1968-08-02,3304.72582
1968-08-03,3061.99003
1968-08-04,2966.55449
1968-08-05,2743.29131
1968-08-06,2578.49595
1968-08-07,2400.65203
1968-08-08,2480.85867
1968-08-09,2902.95143
1968-08-10,4207.63882
1968-08-11,4390.30865
1968-08-12,4309.8141
1968-08-13,4458.01686
1968-08-14,4161.9276
1968-08-15,4045.04302
1968-08-16,3791.15523
1968-08-17,3816.36651
1968-08-18,3674.24151
1968-08-19,3766.88709
1968-08-20,3794.28945
1968-08-21,3895.33732
1968-08-22,4705.03973
1968-08-23,6250.29773
1968-08-24,7907.44649
1968-08-25,8416.12232
1968-08-26,7857.12076
1968-08-27,6844.00035
1968-08-28,6323.54446
1968-08-29,5683.99733
1968-08-30,5112.53417
1968-08-31,4741.55972
1968-09-01,4069.89408
1968-09-02,3691.51826
1968-09-03,3523.21859
1968-09-04,3608.33864
1968-09-05,3627.35037
1968-09-06,3380.80816
1968-09-07,3243.60045
1968-09-08,3029.58206
1968-09-09,2775.97456
1968-09-10,2707.25707
1968-09-11,2562.19393
1968-09-12,2486.82419
1968-09-13,2320.93416
1968-09-14,2260.23014
1968-09-15,2300.48688
1968-09-16,2433.48175
1968-09-17,2526.16387
1968-09-18,2585.2035
1968-09-19,2584.40074
1968-09-20,2431.91883
1968-09-21,2414.59467
1968-09-22,2493.75799
1968-09-23,2573.92925
1968-09-24,2474.26114
1968-09-25,2344.02449
1968-09-26,2329.67908
1968-09-27,2319.14285
1968-09-28,2177.70075
1968-09-29,2237.89819
1968-09-30,2290.27296
1968-10-01,2382.496
1968-10-02,2290.89324
1968-10-03,2292.27331
1968-10-04,2252.83223
1968-10-05,2192.88005
1968-10-06,2180.09965
1968-10-07,2068.98519
1968-10-08,2128.88248
1968-10-09,2046.28948
1968-10-10,2019.84596
1968-10-11,2001.90955
1968-10-12,1983.92218
1968-10-13,1904.35279
1968-10-14,1920.16204
1968-10-15,2199.44365
1968-10-16,2382.90982
1968-10-17,2486.21754
1968-10-18,2423.76225
1968-10-19,2307.17831
1968-10-20,2239.1494
1968-10-21,2216.74485
1968-10-22,2232.68328
1968-10-23,2163.67143
1968-10-24,2178.78855
1968-10-25,2155.60735